Flag for Uruguay Weather past 2 weeks in Maldonado, Uruguay

Now
52 °F

Clear.


Feels Like: 49 °F
Forecast: 50 / 67 °F
Wind: 7 mph from Northeast

Location: Capitan Corbeta

Current Time: Sep 21, 2014 at 11:54:14 PM

Latest Report: Sep 21, 2014 at 11:00 PM


Visibility: 10 mi

Pressure: 30.18 "Hg

Humidity: 88%

Dew point: 48 °F

Location of MaldonadoLocation

Historic Weather in Maldonado — Graph

°F

Maldonado temperature yesterday

Maximum temperature yesterday: 61 °F (at 10:00 AM)
Minimum temperature yesterday: 54 °F (at 5:00 PM)
Average temperature yesterday: 56 °F

Past Weeks' High & Low Weather Summary

 TemperatureHumidityPressure
High75 °F (Sep 9, 9:00 AM)100% (Sep 9, 3:00 PM)30.18 "Hg (Sep 9, 3:00 PM)
Low41 °F (Sep 12, 7:00 AM)34% (Sep 11, 4:00 PM)29.50 "Hg (Sep 9, 9:00 AM)
Average57 °F80%29.99 "Hg
* Reported Sep 6 10:00 PM — Sep 21 10:00 PM, Maldonado, Weather by CustomWeather, © 2014

Note: Actual official high and low records may vary slightly from our data, if they occured in-between our weather recording intervals... More about our weather records

Advertising

Maldonado weather history for previous 24 hours

 ConditionsComfort  
Time TempWeatherWind HumidityBarometerVisibility
10:00 PM
Sep 21
54 °FClear.12 mph82%30.18 "Hg10 mi
9:00 PM54 °FClear.12 mph82%30.18 "Hg10 mi
8:00 PM54 °FClear.13 mph77%30.18 "Hg10 mi
7:00 PM54 °FClear.13 mph77%30.18 "Hg10 mi
6:00 PM57 °FClear.12 mph67%30.15 "Hg10 mi
5:00 PM59 °FPassing clouds.12 mph63%30.15 "HgN/A
4:00 PM63 °FPassing clouds.13 mph52%30.15 "HgN/A
2:00 PM63 °FPassing clouds.14 mph49%30.15 "HgN/A
1:00 PM63 °FScattered clouds.15 mph52%30.18 "HgN/A
12:00 PM61 °FPassing clouds.12 mph55%30.18 "HgN/A
11:00 AM61 °FPassing clouds.14 mph59%30.18 "HgN/A
10:00 AM61 °FPassing clouds.14 mph59%30.18 "HgN/A
9:00 AM59 °FPassing clouds.12 mph68%30.15 "HgN/A
8:00 AM57 °FSunny.8 mph77%30.12 "Hg10 mi
7:00 AM54 °FPassing clouds.8 mph100%30.12 "HgN/A
6:00 AM54 °FPassing clouds.7 mph88%30.09 "HgN/A
5:00 AM55 °FPassing clouds.10 mph88%30.07 "HgN/A
4:00 AM55 °FPassing clouds.14 mph88%30.07 "HgN/A
2:00 AM55 °FLow clouds.12 mph88%30.07 "HgN/A
1:00 AM55 °FLow clouds.13 mph88%30.07 "HgN/A
11:00 PM
Sep 20
55 °FLow clouds.13 mph88%30.04 "HgN/A
Weather by CustomWeather, © 2014

See weather overviewHow to use our weather pages